Location: Sternwarte auf dem Internationalen Platz Vogelsang IP
(50.5721°N, 6.4398°E)
Time: 21:40:22
(UTC+01:00)

Transit 2A Rocket - Pass Details

Date: 19 December 2025
Orbit: 581 x 903 km, 66.7° (Epoch: 12 January)

Event Time Altitude Azimuth Distance (km) Brightness Sun altitude
Rises 15:39:51 0° 322° (NW) 3,535 8.3 5.1°
Reaches altitude 10° 15:42:24 10° 323° (NW) 2,585 7.7 4.9°
Maximum altitude 15:48:29 87° 52° (NE) 885 5.5 4.2°
Drops below altitude 10° 15:54:13 10° 143° (SE) 2,447 7.8 3.6°
Sets 15:56:35 0° 144° (SE) 3,335 8.4 3.3°
